Moab, UT

9:09 AM MDT on October 19, 2019 (GMT -0600)
Canyonlands

Weather History for KCNY - August, 2019

Change the Weather History Date:

Friday, August 16, 2019

  Actual Average Record
Temperature  
Mean Temperature 81 °F 77 °F  
Max Temperature 101 °F 92 °F 107 °F (1992)
Min Temperature 61 °F 62 °F 51 °F (1949)
Degree Days  
Heating Degree Days 0 0  
Month to date heating degree days 0 0  
Since 1 June heating degree days 23 17  
Since 1 July heating degree days 0 0  
Cooling Degree Days 16 12  
Month to date cooling degree days 261 222  
Year to date cooling degree days 1034 1015  
Since 1 June cooling degree days 1019 951  
Growing Degree Days 32 (Base 50)    
Moisture  
Dew Point 21 °F    
Average Humidity 12    
Maximum Humidity 19    
Minimum Humidity 5    
Precipitation  
Precipitation 0.00 in 0.03 in 0.56 in (2005)
Month to date precipitation 0.02 0.43  
Year to date precipitation 6.17 4.97  
Sea Level Pressure  
Sea Level Pressure 29.72 in    
Wind  
Wind Speed 8 mph (West)    
Max Wind Speed 36 mph    
Max Gust Speed 55 mph    
Visibility 10 miles    
Events      
T = Trace of Precipitation, MM = Missing Value Source: NWS Daily Summary

Daily Weather History Graph

Daily Weather History Graph

Search for Another Location

Airport or City:

Astronomy

Aug. 16, 2019 Rise Set
Actual Time 6:33 AM MDT 8:12 PM MDT
Civil Twilight 6:05 AM MDT 8:40 PM MDT
Nautical Twilight 5:31 AM MDT 9:14 PM MDT
Astronomical Twilight 4:54 AM MDT 9:50 PM MDT
Moon 9:13 PM MDT (8/16) 7:28 AM MDT (8/16)
Length of Visible Light 14h 35m
Length of Day
13h 38m
Full, 99% of the Moon is Illuminated
Aug 16
Full
Aug 23
Last Quarter
Aug 30
New
Sep 5
First Quarter
Sep 13
Full

Hourly Weather History & Observations

Time (MDT) Temp. Dew Point Humidity Pressure Visibility Wind Dir Wind Speed Gust Speed Precip Events Conditions
12:53 AM 73.0 °F 19.0 °F 13% 29.75 in 10.0 mi ENE 9.2 mph - N/A   Clear
1:53 AM 75.9 °F 21.0 °F 13% 29.74 in 10.0 mi Calm Calm - N/A   Clear
2:53 AM 72.0 °F 19.9 °F 14% 29.74 in 10.0 mi NW 6.9 mph - N/A   Clear
3:53 AM 66.0 °F 19.0 °F 17% 29.75 in 10.0 mi Calm Calm - N/A   Clear
4:53 AM 64.9 °F 19.9 °F 18% 29.77 in 10.0 mi Calm Calm - N/A   Clear
5:53 AM 64.9 °F 19.9 °F 18% 29.78 in 10.0 mi Calm Calm - N/A   Clear
6:53 AM 64.9 °F 21.0 °F 19% 29.79 in 10.0 mi Calm Calm - N/A   Clear
7:53 AM 72.0 °F 21.9 °F 15% 29.81 in 10.0 mi WNW 3.5 mph - N/A   Clear
8:53 AM 82.0 °F 23.0 °F 11% 29.80 in 10.0 mi NE 6.9 mph - N/A   Clear
9:53 AM 87.1 °F 23.0 °F 10% 29.81 in 10.0 mi Variable 3.5 mph - N/A   Clear
10:53 AM 89.1 °F 23.0 °F 9% 29.80 in 10.0 mi Variable 3.5 mph - N/A   Clear
11:53 AM 95.0 °F 24.1 °F 8% 29.78 in 10.0 mi North - - N/A   Clear
12:53 PM 96.1 °F 21.9 °F 7% 29.75 in 10.0 mi WNW 13.8 mph 25.3 mph N/A   Clear
1:53 PM 98.1 °F 19.0 °F 6% 29.71 in 10.0 mi West 10.4 mph 34.5 mph N/A   Clear
2:53 PM 99.0 °F 19.9 °F 6% 29.69 in 10.0 mi West 12.7 mph 21.9 mph N/A   Clear
3:53 PM 100.0 °F 19.9 °F 6% 29.66 in 10.0 mi SW 24.2 mph 35.7 mph N/A   Clear
4:53 PM 99.0 °F 19.9 °F 6% 29.65 in 10.0 mi SW 15.0 mph 24.2 mph N/A   Clear
5:53 PM 99.0 °F 18.0 °F 5% 29.63 in 10.0 mi SW 19.6 mph 26.5 mph N/A   Clear
6:53 PM 95.0 °F 18.0 °F 6% 29.63 in 10.0 mi SW 16.1 mph 23.0 mph N/A   Clear
7:28 PM 93.0 °F 21.9 °F 8% 29.85 in 10.0 mi North - - N/A   Partly Cloudy
7:53 PM 93.0 °F 21.0 °F 7% 29.64 in 10.0 mi SSW 10.4 mph - N/A   Partly Cloudy
8:53 PM 91.0 °F 21.9 °F 8% 29.63 in 10.0 mi SW 12.7 mph - N/A   Partly Cloudy
9:53 PM 88.0 °F 21.9 °F 9% 29.65 in 10.0 mi NW 10.4 mph - N/A   Clear
10:53 PM 82.0 °F 23.0 °F 11% 29.65 in 10.0 mi North 6.9 mph - N/A   Clear
11:53 PM 77.0 °F 23.0 °F 13% 29.66 in 10.0 mi Calm Calm - N/A   Partly Cloudy